FREGAT R/B, 40316

Orbit data source: Space-Track

FREGAT R/B, 40316 is space debris in MEO originally from a launch on Sun, 30 Nov 2014 UTC launched from the Plesetsk Missile And Space Complex (PKMTR). Debris objects in space refer to the collection of defunct objects orbiting the Earth. Examples of debris include non-operational satellites, rocket bodies, and fragments generated from explosions, collisions, or faulty payload assembly.

Loading next visibility...
Identifier
40316, 2014-075B
Orbit
MEO
Country
Flag of CISCIS
Related business
Manufacturer
Lavochkin
Mission
Spacecraft
Bus & Motor
FREGAT, Unknown motor
Mass
1,000 kg wet, 1,000 kg dry
Launch date (UTC)
2014-11-30 (11 years ago)
Launch vehicle
Unknown
Launch site
Plesetsk Missile And Space Complex (PKMTR)
Object type
Payload
Rocket body
Debris
Shape & HBR
Cyl, 1.7 m
Radar Cross Section
8.354 m², Large (>1 m²)

Expand to show TLE details & history
Last TLE update: 2 days ago

TLE from 2 days ago
0 FREGAT R/B
1 40316U 14075B   26036.13171615  .00000052  00000-0  00000-0 0  9990
2 40316  63.5564 201.3306 0043795 135.9922 224.3309  2.08635547 85207
Epoch: 2026-02-05T03:09Z
TLE epoch observation values (Epoch: 2026-02-05T03:09:40.275Z)
Latitude
0.00001°
Longitude
18.62479°
Altitude
19,574.362 km
Speed
3.913 km/s
True Right ascension
13h 25m 19s
True Declination
0° 00' 00"
Sunlit
Object was in daylight at epoch
Visualization orbit readout
Latitude
Unknown
Longitude
Unknown
Altitude
Unknown
Speed
Unknown
Apparent Right ascension
Unknown
Apparent Declination
Unknown
Sunlit
N/A
Visualization observer readout
Local Sidereal Time
12:54:17
Azimuth
Unknown
Elevation
Unknown
Doppler factor
Unknown
Orbital elements
Apogee altitude
19,605.621 km
Perigee altitude
19,379.021 km
Semi-major axis
25,870.458 km
Eccentricity
0.00438
Inclination
63.5564°
RAAN
201.3306°
Arg. of periapsis
135.9922°
True anomaly
223.98157°
Mean anomaly
224.3309°
Eccentric anomaly
224.1561°
Mean motion
0.5216 °/min
Orbital period
690.18 mins
BSTAR
0
Loading maneuver chart data...
Computing Atmospheric mass density...
Loading historical data...
Loading historical data...
Loading historical data...
Loading historical data...
Loading historical data...
Loading historical data...
Loading historical data...
Other satellites on launch #75 in the year 2014 (2014-11-30 UTC)

Documentation

Showing up to 5 results
|